Погода Санкт-Петербург

Погода Санкт-Петербург : погода сейчас, прогноз погоды и архив. Всё, что Вы хотите узнать о погоде Санкт-Петербург!

Хотите узнать прогноз погоды в Санкт-Петербурге? Тогда Вам сюда: Погода в Санкт-Петербурге

Поиск расширенной информации на нашем сайте:

Другие новости

Новости СМИ2

Главная страница сайта

Новости сайта

03.07.2017

Напоминаем, что на нашем специализированном сайте Метеоцентр.Азия вы можете получить высокодетализированные автоматические прогнозы погоды по пунктам России, СНГ и мира в авиационном формате (включающие направление и скорость ветра, видимость, явления погоды, количество и форму облачности, нижнюю и верхнюю границу облачности).


Погода Санкт-Петербург - сегодня

Время (UTC), дата Ветер
(°,м/с) 
Видим.   Явления Облачность Т
(°С)
Тd
(°С)
f(%) Тe
(°С)
Pmin
(гПа)
dP
(гПа)
Po
(мм)
O2
(г/м3)
Тmin Tmax R s Состояние
почвы
09 13.01.18 240 (ЮЗ) 10 км  слаб. снег  10/10 200 м 
[Frnb|Ns]
-5.2 -6.9 88 -7  1043.4  0.1  782  322           
12 13.01.18 250 (З) 10 км  слаб. снег  10/10 200 м 
[Frnb|Ns]
-5.1 -6.8 88 -7  1043.2  -0.2  782  322           
15 13.01.18 260 (З) 10 км  {снег}  10/10 330 м 
[Sc]
-4.4 -6.1 88 -6  1042.8  -0.4  782  321      0.0     
18 13.01.18 340 (С) 10 км  {снег}  10/10 360 м 
[Sc]
-5.5 -7.7 84 -7  1043  0.2  782  322    -4.1  0.0     
21 13.01.18 310 (СЗ) 10 км    10/10 360 м 
[Sc]
-5.3 -7.6 84 -5  1042.9  0.1  782  322           
00 14.01.18 340 (С) 10 км    10/10 270 м 
[St]
-5.5 -7.1 88 -5  1042.7  -0.2  781  322           
03 14.01.18 тихо ()   10 км    10/10 270 м 
[St]
-5.1 -6.5 90 -5  1042.6  -0.2  781  322  -5.8         
06 14.01.18 340 (С) 10 км    10/10 240 м 
[St]
-4.6 -5.8 91 -4  1041.8  -0.8  781  321  -5.8      равномерный
сухой снег
100% 
09 14.01.18 тихо ()   10 км    10/10 240 м 
[St]
-4.3 -5.9 89 -4  1042.3  0.5  781  320           
12 14.01.18 220 (ЮЗ) 10 км    10/10 270 м 
[St]
-3.8 -5.3 89 -3  1041.9  -0.4  781  320           
15 14.01.18 100 (В) 10 км    10/10 270 м 
[St]
-3.4 -5.8 83 -3  1041.2  -0.7  780  319           
18 14.01.18 180 (Ю) 10 км    10/10 330 м 
[Sc]
-4.4 -6.7 84 -6  1040.5  -0.7  780  320    -3.2       
21 14.01.18 190 (Ю) 10 км    10/10 360 м 
[Sc]
-5.8 -8.3 82 -8  1040.1  -0.4  779  322           
00 15.01.18 190 (Ю) 10 км    10/10 360 м 
[Sc]
-6.7 -9.4 81 -9  1039.1  -1  779  323           
03 15.01.18 170 (Ю) 10 км    10/10 360 м 
[Sc]
-7.1 -9.4 84 -9  1037.6  -1.5  778  323  -7.1         
06 15.01.18 180 (Ю) 10 км    8/8 300 м 
[Sc]
-8.1 -10.3 84 -11  1036.5  -1.1  777  324  -8.1      равномерный
сухой снег
100% 
09 15.01.18 160 (Ю) 10 км    10/10 330 м 
[Sc]
-7.9 -10.2 83 -9  1035.6  -0.9  776  323           
12 15.01.18 180 (Ю) 10 км    9/5 600 м средняя, верхняя 
[Sc|Ac trans|Ci fib]
-8.1 -11 80 -10  1033.2  -2.4  774  323           
15 15.01.18 100 (В) 10 км    9/9 400 м 
[Sc]
-7.6 -10.1 82 -9  1031  -2.2  773  321           
18 15.01.18 150 (ЮВ) 10 км  слаб. снег  10/10 300 м 
[Sc]
-7.6 -9.8 84 -7  1028.8  -2.2  771  321    -7.2  0.0     
21 15.01.18 120 (ЮВ) 10 км  {снег}  9/9 480 м 
[Sc]
-7.6 -10.6 79 -7  1026.7  -2  769  320           
00 16.01.18 180 (Ю) 10 км  слаб. снег  10/10 300 м 
[Sc]
-9.4 -12.3 79 -13  1025.4  -1.3  768  322           
03 16.01.18 190 (Ю) 4000 м  слаб. ливневой снег  10/10 300 м кучево-дожд. 
[Cb cap]
-9.1 -11.8 81 -12  1023.7  -1.8  767  321  -9.4    0.3     
06 16.01.18 140 (ЮВ) 10 км  {ливн. осадки, снег}  10/10 270 м 
[Sc]
-10.7 -13.5 80 -13  1022.4  -1.2  766  323  -10.7    0.3  равномерный
сухой снег
100% 
09 16.01.18 120 (ЮВ) 10 км    ясно 
-10.2 -13.6 76 -12  1021.9  -0.5  766  322           
Время (UTC), дата Ветер
(°,м/с) 
Видим.   Явления Облачность Т
(°С)
Тd
(°С)
f(%) Тe
(°С)
Pmin
(гПа)
dP
(гПа)
Po
(мм)
O2
(г/м3)
Тmin Tmax R s Состояние
почвы

Для получения пояснительной информации подведите курсор к названию столбца.

ПОГОДА Санкт-Петербург - архив

Всё, что Вы хотите узнать о погоде Санкт-Петербург - удобно и подробно!

Выберите нужную дату (начиная с 1 января 2015* года) и нажмите кнопку "Найти".
Будут отображены архивные сводки погоды по пункту Санкт-Петербург, начиная с указанной даты.


Отображать данные в формате CSV (для использования в таблицах Excel)


Внимание! Наш архив погоды предназначен исключительно для личного некоммерческого использования в познавательных целях. Если Вам необходимы официальные справки о состоянии погоды (для производственных, юридических, коммерческих и т.п. целей), обращайтесь в органы Росгидромета.

*Примечание: данная дата относится к архиву по метеостанциям СССР (Россия, СНГ, Балтия).
Архив по метеостанциям Зарубежной Европы и Азии (кроме Китая) хранится 10 дней, по другим регионам земного шара (Китай, Африка, Америка, Австралия, Океания) - 1 день.

Санкт-Петербург - район местоположения метеостанции


Название, широта, долгота, высота метеостанции:
Санкт-Петербург (ИЦП) 60°ш. 30.3°д. 6 м над ур. моря [Российская Федерация]

Дополнительная информация

В oтличие oт бoльшинства пoгoдных сайтoв мы публикуем пoдрoбную метеoинфoрмацию в детальнoм прoфессиoнальнoм фoрмате.

Характеристики температуры и влажнoсти вoздуха измеряются на высoте 2 м в тени вдали oт зданий и деревьев.
Скoрoсть ветра измеряется на высoте 10 м (на урoвне рoста челoвека скoрoсть ветра ниже в 1.5-2 раза). Если метеoстанция нахoдится в гoрoде или в лесу, тo скoрoсть ветра занижена на 2-4 м/с пo сравнению с oткрытым местoм. Скoрoсть ветра над акватoриями крупных рек и oзёр, а также на вершинах хoлмoв на 2-5 м/с выше, чем в oбычных услoвиях.
Атмoсфернoе давление в разных тoчках местнoсти мoжет значительнo oтличаться oт давления на метеoстанции, в зависимoсти oт услoвий рельефа (при пoдъёме на 10 м давление пoнижается примернo на 1 мм рт.ст.).